Weather History for Washington, NC

Change the Weather History Date:

Tuesday, July 2, 2013

  Actual Average (KEWN) Record (KEWN)
Temperature  
Mean Temperature 80 °F 80 °F  
Max Temperature 86 °F 89 °F 96 °F (1953)
Min Temperature 73 °F 71 °F 55 °F (1975)
Degree Days  
Heating Degree Days 0 0  
Month to date heating degree days 0  
Since 1 June heating degree days 1  
Since 1 July heating degree days 0  
Cooling Degree Days 14 15  
Month to date cooling degree days 30  
Year to date cooling degree days 638  
Since 1 June cooling degree days 395  
Growing Degree Days 30 (Base 50)    
Moisture  
Dew Point 73 °F    
Average Humidity 83    
Maximum Humidity 85    
Minimum Humidity 71    
Precipitation  
Precipitation 0.32 in 0.18 in 1.36 in (1960)
Month to date precipitation 0.35  
Year to date precipitation 24.33  
Snow  
Snow 0.00 in - - ()
Month to date snowfall  
Since 1 July snowfall  
Snow Depth -    
Sea Level Pressure  
Sea Level Pressure 30.16 in    
Wind  
Wind Speed 6 mph (South)    
Max Wind Speed 18 mph    
Max Gust Speed 23 mph    
Visibility 9 miles    
Events Rain    
T = Trace of Precipitation, MM = Missing Value Source: NWS Daily Summary

Daily Weather History Graph

Daily Weather History Graph

Search for Another Location

Airport:

Trip Planner

Search our weather history database for the weather conditions in past years. The results will help you decide how hot, cold, wet, or windy it might be!

Date:

Astronomy

Jul. 02, 2013 Rise Set
Actual Time 5:56 AM EDT 8:27 PM EDT
Civil Twilight 5:27 AM EDT 8:57 PM EDT
Nautical Twilight 4:50 AM EDT 9:34 PM EDT
Astronomical Twilight 4:09 AM EDT 10:15 PM EDT
Moon 1:52 AM EDT (7/2) 3:44 PM EDT (7/2)
Length of Visible Light 15h 30m
Length of Day
14h 30m
Waning Crescent, 26% of the Moon is Illuminated
Jul 2
Waning Crescent
Jul 8
New
Jul 15
First Quarter
Jul 22
Full
Jul 29
Last Quarter

Hourly Weather History & Observations

Time (EDT) Temp. Heat Index Dew Point Humidity Pressure Visibility Wind Dir Wind Speed Gust Speed Precip Events Conditions
12:15 AM 78.1 °F - 73.0 °F 84% 30.07 in 10.0 mi South 8.1 mph - N/A   Clear
12:35 AM 78.1 °F - 73.0 °F 84% 30.06 in 10.0 mi South 6.9 mph - N/A   Clear
12:55 AM 78.1 °F - 73.0 °F 84% 30.06 in 10.0 mi SSE 8.1 mph - N/A   Clear
1:15 AM 78.1 °F - 73.0 °F 84% 30.06 in 10.0 mi SSE 9.2 mph - N/A   Scattered Clouds
1:35 AM 78.1 °F - 73.0 °F 84% 30.06 in 10.0 mi South 5.8 mph - N/A   Clear
1:55 AM 78.1 °F - 73.0 °F 84% 30.07 in 10.0 mi South 10.4 mph - N/A   Scattered Clouds
2:15 AM 78.1 °F - 73.0 °F 84% 30.07 in 10.0 mi South 10.4 mph - N/A   Mostly Cloudy
2:35 AM 78.1 °F - 73.0 °F 84% 30.08 in 7.0 mi SSW 11.5 mph 23.0 mph 0.02 in Rain Rain
2:55 AM 74.3 °F - 69.4 °F 85% 30.08 in 7.0 mi South 10.4 mph 18.4 mph 0.09 in Rain Heavy Rain
3:15 AM 74.3 °F - 69.4 °F 85% 30.08 in 10.0 mi South 6.9 mph - 0.02 in Rain Light Rain
3:35 AM 73.6 °F - 68.7 °F 85% 30.08 in 10.0 mi South 5.8 mph - 0.02 in   Clear
3:55 AM 73.4 °F - 68.4 °F 84% 30.08 in 10.0 mi South 6.9 mph - 0.02 in   Clear
4:15 AM 73.4 °F - 68.4 °F 84% 30.08 in 10.0 mi South 6.9 mph - N/A   Clear
4:35 AM 73.0 °F - 68.2 °F 85% 30.08 in 10.0 mi South 5.8 mph - N/A   Clear
4:55 AM 73.0 °F - 68.2 °F 85% 30.09 in 10.0 mi South 4.6 mph - N/A   Clear
5:15 AM 73.0 °F - 68.2 °F 85% 30.10 in 10.0 mi South 4.6 mph - N/A   Clear
5:35 AM 73.0 °F - 68.2 °F 85% 30.11 in 10.0 mi Calm Calm - N/A   Clear
5:55 AM 73.0 °F - 68.2 °F 85% 30.12 in 7.0 mi Calm Calm - N/A   Clear
6:15 AM 73.0 °F - 68.2 °F 85% 30.13 in 7.0 mi SSE 4.6 mph - N/A   Clear
6:35 AM 73.4 °F - 68.4 °F 84% 30.13 in 5.0 mi SSE 3.5 mph - N/A   Clear
6:55 AM 73.8 °F - 68.9 °F 85% 30.14 in 7.0 mi SSE 4.6 mph - 0.01 in   Clear
7:15 AM 74.3 °F - 69.4 °F 85% 30.14 in 7.0 mi South 3.5 mph - N/A   Clear
7:35 AM 74.3 °F - 69.4 °F 85% 30.14 in 7.0 mi SSE 5.8 mph - N/A   Clear
7:55 AM 74.8 °F - 70.0 °F 85% 30.15 in 7.0 mi SSE 5.8 mph - N/A   Clear
8:15 AM 75.6 °F - 70.7 °F 85% 30.16 in 7.0 mi South 3.5 mph - N/A   Clear
8:35 AM 77.4 °F - 72.3 °F 84% 30.16 in 10.0 mi SSE 4.6 mph - N/A   Clear
8:55 AM 78.1 °F - 73.0 °F 84% 30.16 in 10.0 mi SSE 5.8 mph - N/A   Clear
9:15 AM 78.1 °F - 73.0 °F 84% 30.17 in 10.0 mi South 6.9 mph - N/A   Clear
9:35 AM 78.4 °F - 73.4 °F 84% 30.17 in 10.0 mi South 6.9 mph - N/A   Clear
9:55 AM 79.7 °F - 74.3 °F 83% 30.17 in 10.0 mi South 8.1 mph - N/A   Clear
10:15 AM 80.8 °F 86.5 °F 75.2 °F 83% 30.17 in 10.0 mi SSW 4.6 mph - N/A   Clear
10:35 AM 80.8 °F 86.1 °F 74.3 °F 81% 30.17 in 10.0 mi SSW 5.8 mph - N/A   Clear
10:55 AM 80.8 °F 86.1 °F 74.3 °F 81% 30.17 in 10.0 mi South 3.5 mph - N/A   Clear
11:15 AM 83.3 °F 91.8 °F 76.1 °F 79% 30.17 in 10.0 mi South 5.8 mph - N/A   Clear
11:35 AM 83.5 °F 91.6 °F 75.7 °F 77% 30.17 in 10.0 mi South 6.9 mph - N/A   Clear
11:55 AM 83.3 °F 90.8 °F 75.0 °F 76% 30.18 in 10.0 mi South 9.2 mph - N/A   Clear
12:15 PM 85.6 °F 95.0 °F 75.7 °F 72% 30.17 in 10.0 mi South 6.9 mph 16.1 mph N/A   Clear
12:35 PM 84.6 °F 92.4 °F 74.8 °F 72% 30.17 in 10.0 mi SSE 10.4 mph - N/A   Scattered Clouds
12:55 PM 84.6 °F 93.2 °F 75.6 °F 74% 30.17 in 10.0 mi SSE 11.5 mph - N/A   Clear
1:15 PM 80.2 °F 84.9 °F 73.9 °F 81% 30.17 in 5.0 mi WSW 18.4 mph - 0.04 in Rain Heavy Rain
1:35 PM 78.1 °F - 73.0 °F 84% 30.16 in 10.0 mi Calm Calm - 0.13 in   Scattered Clouds
1:55 PM 80.8 °F 86.7 °F 75.4 °F 84% 30.16 in 10.0 mi Calm Calm - 0.13 in   Clear
2:15 PM 83.3 °F 92.8 °F 77.2 °F 82% 30.16 in 10.0 mi SSW 4.6 mph - N/A   Clear
2:35 PM 84.6 °F 93.9 °F 76.1 °F 76% 30.17 in 10.0 mi SSW 9.2 mph 17.3 mph N/A   Scattered Clouds
2:55 PM 86.0 °F 95.5 °F 75.6 °F 71% 30.17 in 10.0 mi South 13.8 mph 20.7 mph N/A   Clear
3:15 PM 84.0 °F 92.6 °F 75.6 °F 76% 30.18 in 7.0 mi South 18.4 mph 23.0 mph 0.02 in Rain Rain
3:35 PM 78.1 °F - 73.0 °F 84% 30.19 in 10.0 mi West 12.7 mph 20.7 mph 0.04 in   Scattered Clouds
3:55 PM 75.6 °F - 70.7 °F 85% 30.21 in 5.0 mi WNW 3.5 mph - 0.07 in   Scattered Clouds
4:15 PM 78.1 °F - 73.0 °F 84% 30.20 in 10.0 mi WNW 4.6 mph - N/A   Clear
4:35 PM 78.1 °F - 73.0 °F 84% 30.19 in 10.0 mi NW 4.6 mph - N/A   Clear
4:55 PM 78.1 °F - 73.0 °F 84% 30.19 in 10.0 mi WNW 3.5 mph - N/A   Clear
5:15 PM 79.0 °F - 73.9 °F 84% 30.18 in 10.0 mi NNW 4.6 mph - N/A   Scattered Clouds
5:35 PM 80.4 °F 85.6 °F 74.8 °F 83% 30.18 in 10.0 mi Calm Calm - N/A   Clear
5:55 PM 80.8 °F 86.5 °F 75.2 °F 83% 30.18 in 10.0 mi Calm Calm - N/A   Clear
6:15 PM 80.8 °F 86.5 °F 75.2 °F 83% 30.18 in 10.0 mi Calm Calm - N/A   Clear
6:35 PM 80.8 °F 86.3 °F 74.8 °F 82% 30.18 in 10.0 mi Calm Calm - N/A   Scattered Clouds
6:55 PM 80.8 °F 86.5 °F 75.0 °F 83% 30.19 in 10.0 mi ESE 5.8 mph - N/A   Clear
7:15 PM 80.8 °F 86.7 °F 75.6 °F 84% 30.19 in 10.0 mi East 4.6 mph - N/A   Clear
7:35 PM 80.8 °F 86.9 °F 75.7 °F 85% 30.20 in 10.0 mi East 3.5 mph - N/A   Clear
7:55 PM 80.8 °F 86.9 °F 75.7 °F 85% 30.21 in 10.0 mi East 3.5 mph - N/A   Clear
8:15 PM 79.3 °F - 74.3 °F 84% 30.21 in 10.0 mi ESE 3.5 mph - N/A   Clear
8:35 PM 78.1 °F - 73.0 °F 84% 30.21 in 10.0 mi Calm Calm - N/A   Scattered Clouds
8:55 PM 78.1 °F - 73.0 °F 84% 30.20 in 10.0 mi East 4.6 mph - N/A   Scattered Clouds
9:15 PM 78.1 °F - 73.0 °F 84% 30.21 in 10.0 mi Calm Calm - N/A   Scattered Clouds
9:35 PM 78.1 °F - 73.0 °F 84% 30.22 in 10.0 mi ESE 3.5 mph - N/A   Scattered Clouds
9:55 PM 78.1 °F - 73.0 °F 84% 30.23 in 10.0 mi Calm Calm - N/A   Scattered Clouds
10:15 PM 78.1 °F - 73.0 °F 84% 30.23 in 10.0 mi ESE 3.5 mph - N/A   Clear
10:35 PM 78.1 °F - 73.0 °F 84% 30.23 in 10.0 mi SE 4.6 mph - N/A   Clear
10:55 PM 78.1 °F - 73.0 °F 84% 30.24 in 10.0 mi SE 4.6 mph - N/A   Clear
11:15 PM 78.1 °F - 73.0 °F 84% 30.23 in 10.0 mi SE 3.5 mph - N/A   Clear
11:35 PM 78.1 °F - 73.0 °F 84% 30.23 in 10.0 mi SSE 4.6 mph - N/A   Clear
11:55 PM 78.1 °F - 73.0 °F 84% 30.24 in 10.0 mi SE 4.6 mph - N/A   Clear